VU36VU-13 Weather Reports


Display with metric or nautical units.
time (UTC)temp
F
wind
direction
speed
MPH
gust
MPH
rain 1hr
in
rain 24hr
in
rain mn
in
humidity
%
barometer
mb
20260504191447 77 195 23.0 54.0 0.00 0.00 0.00 60 1011.0
20260504191247 77 195 23.0 54.0 0.00 0.00 0.00 60 1011.0
20260504191047 77 195 23.0 54.0 0.00 0.00 0.00 63 1011.0
20260504190847 77 195 23.0 54.0 0.00 0.00 0.00 63 1011.0
20260504190647 77 195 23.0 54.0 0.00 0.00 0.00 63 1011.0
20260504190447 77 195 23.0 54.0 0.00 0.00 0.00 63 1011.0
20260504190247 77 195 23.0 54.0 0.00 0.00 0.00 63 1011.0
20260504190048 77 195 23.0 54.0 0.00 0.00 0.00 63 1011.0
20260504185847 77 195 23.0 52.0 0.00 0.02 0.00 63 1011.0
20260504185647 77 195 23.0 52.0 0.00 0.02 0.00 63 1011.0
20260504183247 77 195 23.0 50.0 0.00 0.02 0.00 62 1012.0
20260504183048 77 195 23.0 50.0 0.00 0.02 0.00 62 1012.0
20260504182846 77 195 23.0 47.0 0.00 0.02 0.00 61 1012.0
20260504182646 77 195 23.0 47.0 0.00 0.02 0.00 61 1012.0
20260504182447 77 195 23.0 47.0 0.00 0.02 0.00 61 1012.0
20260504182248 77 195 23.0 47.0 0.00 0.02 0.00 61 1012.0
20260504182048 77 195 23.0 47.0 0.00 0.02 0.00 61 1012.0
20260504181646 77 195 23.0 47.0 0.00 0.02 0.00 61 1012.0
20260504181446 78 191 22.0 45.0 0.00 0.02 0.00 60 1012.0
20260504181246 78 191 22.0 45.0 0.00 0.02 0.00 60 1012.0
20260504181047 78 191 22.0 45.0 0.00 0.02 0.00 60 1012.0
20260504180846 78 191 22.0 45.0 0.00 0.02 0.00 60 1012.0
20260504180646 78 191 22.0 45.0 0.00 0.02 0.00 60 1012.0
20260504180447 78 191 22.0 45.0 0.00 0.02 0.00 60 1012.0
20260504180247 78 191 22.0 45.0 0.00 0.02 0.00 60 1012.0
20260504180049 78 191 22.0 45.0 0.00 0.02 0.00 60 1012.0
20260504175549 78 184 21.0 45.0 0.00 0.02 0.00 59 1012.0
20260504175348 78 184 21.0 45.0 0.00 0.02 0.00 59 1012.0
20260504175148 78 184 21.0 45.0 0.00 0.02 0.00 59 1012.0
20260504174949 78 184 21.0 45.0 0.00 0.02 0.00 59 1012.0
20260504174749 78 184 21.0 45.0 0.00 0.02 0.00 59 1012.0
20260504174548 78 184 21.0 45.0 0.00 0.02 0.00 59 1012.0
20260504174349 78 172 20.0 45.0 0.00 0.02 0.00 58 1012.0
20260504173609 78 172 20.0 45.0 0.00 0.02 0.00 58 1012.0
20260504173409 78 172 20.0 45.0 0.00 0.02 0.00 58 1012.0
20260504173209 78 172 20.0 45.0 0.00 0.02 0.00 58 1012.0
20260504172630 78 158 19.0 44.0 0.00 0.02 0.00 58 1012.0
20260504172430 78 158 19.0 44.0 0.00 0.02 0.00 58 1012.0
20260504172230 78 158 19.0 44.0 0.00 0.02 0.00 58 1012.0
20260504171831 78 158 19.0 44.0 0.00 0.02 0.00 58 1012.0
20260504171631 78 158 19.0 44.0 0.00 0.02 0.00 58 1012.0
20260504171431 79 145 19.0 44.0 0.00 0.02 0.00 56 1012.0
20260504171231 79 145 19.0 44.0 0.00 0.02 0.00 56 1012.0
20260504171031 79 145 19.0 44.0 0.00 0.02 0.00 56 1012.0
20260504170831 79 145 19.0 44.0 0.00 0.02 0.00 56 1012.0
20260504170631 79 145 19.0 44.0 0.00 0.02 0.00 56 1012.0
20260504170431 79 145 19.0 44.0 0.00 0.02 0.00 56 1012.0
20260504170231 79 145 19.0 44.0 0.00 0.02 0.00 56 1012.0
20260504160431 81 107 20.0 41.0 0.00 0.02 0.00 50 1011.0
20260504160231 81 107 20.0 41.0 0.00 0.02 0.00 50 1011.0
20260504150831 83 148 13.0 30.0 0.00 0.02 0.00 40 1010.0
20260504150634 83 148 13.0 30.0 0.00 0.02 0.00 40 1010.0
20260504150431 83 148 13.0 30.0 0.00 0.02 0.00 40 1010.0
20260504150231 83 148 13.0 30.0 0.00 0.02 0.00 40 1010.0
20260504141231 87 342 6.0 26.0 0.00 0.02 0.00 31 1009.0
20260504141031 87 342 6.0 26.0 0.00 0.02 0.00 31 1009.0
20260504140831 87 342 6.0 26.0 0.00 0.02 0.00 31 1009.0
20260504140336 87 302 12.0 26.0 0.00 0.02 0.00 31 1009.0
20260504140137 87 302 12.0 26.0 0.00 0.02 0.00 31 1009.0
20260504130736 90 348 16.0 51.0 0.00 0.02 0.00 27 1007.0
20260504130536 90 348 16.0 51.0 0.00 0.02 0.00 27 1007.0
20260504130137 90 348 16.0 51.0 0.00 0.02 0.00 27 1007.0
20260504110259 94 3 21.0 58.0 0.00 0.02 0.00 23 1006.0
20260504100459 94 360 18.0 54.0 0.00 0.02 0.00 24 1006.0
20260504100300 94 360 18.0 54.0 0.00 0.02 0.00 24 1006.0
20260504081959 94 4 15.0 54.0 0.00 0.02 0.00 26 1008.0
20260504081800 94 4 15.0 54.0 0.00 0.02 0.00 26 1008.0
20260504081359 93 2 16.0 55.0 0.00 0.02 0.00 26 1008.0
20260504081159 93 2 16.0 55.0 0.00 0.02 0.00 26 1008.0
20260504080959 93 2 16.0 55.0 0.00 0.02 0.00 26 1008.0
20260504080759 93 2 16.0 55.0 0.00 0.02 0.00 26 1008.0
20260504080559 93 2 16.0 55.0 0.00 0.02 0.00 26 1008.0
20260504080359 93 2 16.0 55.0 0.00 0.02 0.00 26 1008.0
20260504080159 93 2 16.0 55.0 0.00 0.02 0.00 26 1008.0
20260504070359 94 340 19.0 62.0 0.00 0.00 0.00 27 1009.0
20260504070159 94 340 19.0 62.0 0.00 0.00 0.00 25 1009.0
20260504060234 92 326 20.0 62.0 0.00 0.00 0.00 28 1010.0
20260504050547 89 308 20.0 62.0 0.00 0.00 0.00 37 1011.0
20260504050347 89 308 20.0 62.0 0.00 0.00 0.00 37 1011.0
20260504050147 89 308 20.0 62.0 0.00 0.00 0.00 37 1011.0
20260504045947 88 305 20.0 60.0 0.00 0.00 0.00 40 1011.0
20260504045747 88 305 20.0 60.0 0.00 0.00 0.00 40 1011.0
20260504045547 88 305 20.0 60.0 0.00 0.00 0.00 40 1011.0
20260504045347 88 305 20.0 60.0 0.00 0.00 0.00 40 1011.0
20260504045147 88 305 20.0 60.0 0.00 0.00 0.00 40 1011.0
20260504044947 88 305 20.0 60.0 0.00 0.00 0.00 40 1011.0
20260504044547 88 305 20.0 60.0 0.00 0.00 0.00 40 1011.0
20260504044347 87 301 20.0 59.0 0.00 0.00 0.00 43 1011.0
20260504044147 87 301 20.0 59.0 0.00 0.00 0.00 43 1011.0
20260504043947 87 301 20.0 59.0 0.00 0.00 0.00 43 1011.0
20260504043747 87 301 20.0 59.0 0.00 0.00 0.00 43 1011.0
20260504043547 87 301 20.0 59.0 0.00 0.00 0.00 43 1011.0
20260504043347 87 301 20.0 59.0 0.00 0.00 0.00 43 1011.0
20260504043147 87 301 20.0 59.0 0.00 0.00 0.00 43 1011.0
20260504042947 85 296 20.0 57.0 0.00 0.00 0.00 47 1012.0
20260504042547 85 296 20.0 57.0 0.00 0.00 0.00 47 1012.0
20260504042347 85 296 20.0 57.0 0.00 0.00 0.00 47 1012.0
20260504042147 85 296 20.0 57.0 0.00 0.00 0.00 47 1012.0
20260504041947 85 296 20.0 57.0 0.00 0.00 0.00 47 1012.0
20260504041747 85 296 20.0 57.0 0.00 0.00 0.00 47 1012.0
20260504041547 85 296 20.0 57.0 0.00 0.00 0.00 47 1012.0
20260504041347 84 292 20.0 55.0 0.00 0.00 0.00 52 1012.0
20260504041147 84 292 20.0 55.0 0.00 0.00 0.00 52 1012.0
20260504040947 84 292 20.0 55.0 0.00 0.00 0.00 52 1012.0
20260504040748 84 292 20.0 55.0 0.00 0.00 0.00 52 1012.0
20260504040347 84 292 20.0 55.0 0.00 0.00 0.00 52 1012.0
20260504040148 84 292 20.0 55.0 0.00 0.00 0.00 52 1012.0
20260504035947 83 289 19.0 55.0 0.00 0.00 0.00 54 1012.0
20260504035747 83 289 19.0 55.0 0.00 0.00 0.00 54 1012.0
20260504035548 83 289 19.0 55.0 0.00 0.00 0.00 54 1012.0
20260504035347 83 289 19.0 55.0 0.00 0.00 0.00 54 1012.0
20260504035147 83 289 19.0 55.0 0.00 0.00 0.00 54 1012.0
20260504034947 83 289 19.0 55.0 0.00 0.00 0.00 54 1012.0
20260504034747 83 289 19.0 55.0 0.00 0.00 0.00 54 1012.0
20260504034347 82 284 19.0 53.0 0.00 0.00 0.00 58 1012.0
20260504034147 82 284 19.0 53.0 0.00 0.00 0.00 58 1012.0
20260504033947 82 284 19.0 53.0 0.00 0.00 0.00 58 1012.0
20260504033747 82 284 19.0 53.0 0.00 0.00 0.00 58 1012.0
20260504033547 82 284 19.0 53.0 0.00 0.00 0.00 58 1012.0
20260504033347 82 284 19.0 53.0 0.00 0.00 0.00 58 1012.0
20260504033147 82 284 19.0 53.0 0.00 0.00 0.00 58 1012.0
20260504032947 81 279 18.0 51.0 0.00 0.00 0.00 62 1012.0
20260504032747 81 279 18.0 51.0 0.00 0.00 0.00 62 1012.0
20260504032548 81 279 18.0 51.0 0.00 0.00 0.00 62 1012.0
20260504032147 81 279 18.0 51.0 0.00 0.00 0.00 62 1012.0
20260504031947 81 279 18.0 51.0 0.00 0.00 0.00 62 1012.0
20260504031747 81 279 18.0 51.0 0.00 0.00 0.00 62 1012.0
20260504031547 81 279 18.0 51.0 0.00 0.00 0.00 62 1012.0
20260504031347 79 274 18.0 50.0 0.00 0.00 0.00 66 1012.0
20260504031147 79 274 18.0 50.0 0.00 0.00 0.00 66 1012.0
20260504030947 79 274 18.0 50.0 0.00 0.00 0.00 66 1012.0
20260504030747 79 274 18.0 50.0 0.00 0.00 0.00 66 1012.0
20260504030547 79 274 18.0 50.0 0.00 0.00 0.00 66 1012.0
20260504030348 79 274 18.0 50.0 0.00 0.00 0.00 66 1012.0
20260504025947 78 274 17.0 48.0 0.00 0.00 0.00 69 1012.0
20260504025747 78 274 17.0 48.0 0.00 0.00 0.00 69 1012.0
20260504025547 78 274 17.0 48.0 0.00 0.00 0.00 69 1012.0
20260504025347 78 274 17.0 48.0 0.00 0.00 0.00 69 1012.0
20260504025147 78 274 17.0 48.0 0.00 0.00 0.00 69 1012.0
20260504024947 78 274 17.0 48.0 0.00 0.00 0.00 69 1012.0
20260504024747 78 274 17.0 48.0 0.00 0.00 0.00 69 1012.0
20260504024547 78 274 17.0 48.0 0.00 0.00 0.00 69 1012.0
20260504024347 77 274 17.0 46.0 0.00 0.00 0.00 74 1012.0
20260504024148 77 274 17.0 46.0 0.00 0.00 0.00 74 1012.0
20260504023747 77 274 17.0 46.0 0.00 0.00 0.00 74 1012.0
20260504023547 77 274 17.0 46.0 0.00 0.00 0.00 74 1012.0
20260504023347 77 274 17.0 46.0 0.00 0.00 0.00 74 1012.0
20260504023147 77 274 17.0 46.0 0.00 0.00 0.00 74 1012.0
20260504022947 76 272 16.0 44.0 0.00 0.00 0.00 78 1012.0
20260504022747 76 272 16.0 44.0 0.00 0.00 0.00 78 1012.0
20260504022547 76 272 16.0 44.0 0.00 0.00 0.00 78 1012.0
20260504022347 76 272 16.0 44.0 0.00 0.00 0.00 78 1012.0
20260504022147 76 272 16.0 44.0 0.00 0.00 0.00 78 1012.0
20260504021551 76 272 16.0 44.0 0.00 0.00 0.00 78 1012.0
20260504021351 74 271 16.0 41.0 0.00 0.00 0.00 83 1012.0
20260504021151 74 271 16.0 41.0 0.00 0.00 0.00 83 1012.0
20260504020951 74 271 16.0 41.0 0.00 0.00 0.00 83 1012.0
20260504020551 74 271 16.0 41.0 0.00 0.00 0.00 83 1012.0
20260504020351 74 271 16.0 41.0 0.00 0.00 0.00 83 1012.0
20260504020151 74 271 16.0 41.0 0.00 0.00 0.00 83 1012.0
20260504015951 74 270 15.0 39.0 0.00 0.00 0.00 84 1012.0
20260504015751 74 270 15.0 39.0 0.00 0.00 0.00 84 1012.0
20260504015551 74 270 15.0 39.0 0.00 0.00 0.00 84 1012.0
20260504015351 74 270 15.0 39.0 0.00 0.00 0.00 84 1012.0
20260504015151 74 270 15.0 39.0 0.00 0.00 0.00 84 1012.0
20260504014951 74 270 15.0 39.0 0.00 0.00 0.00 84 1012.0
20260504014551 74 270 15.0 39.0 0.00 0.00 0.00 84 1012.0
20260504014351 73 267 15.0 37.0 0.00 0.00 0.00 87 1012.0
20260504014151 73 267 15.0 37.0 0.00 0.00 0.00 87 1012.0
20260504013951 73 267 15.0 37.0 0.00 0.00 0.00 87 1012.0
20260504013751 73 267 15.0 37.0 0.00 0.00 0.00 87 1012.0
20260504013551 73 267 15.0 37.0 0.00 0.00 0.00 87 1012.0
20260504013351 73 267 15.0 37.0 0.00 0.00 0.00 87 1012.0
20260504013151 73 267 15.0 37.0 0.00 0.00 0.00 87 1012.0
20260504012951 72 265 15.0 34.0 0.00 0.00 0.00 89 1011.0
20260504012752 72 265 15.0 34.0 0.00 0.00 0.00 89 1011.0
20260504012351 72 265 15.0 34.0 0.00 0.00 0.00 89 1011.0
20260504012151 72 265 15.0 34.0 0.00 0.00 0.00 89 1011.0
20260504011951 72 265 15.0 34.0 0.00 0.00 0.00 89 1011.0
20260504011751 72 265 15.0 34.0 0.00 0.00 0.00 89 1011.0
20260504011551 72 265 15.0 34.0 0.00 0.00 0.00 89 1011.0
20260504011351 72 263 14.0 32.0 0.00 0.00 0.00 91 1011.0
20260504011151 72 263 14.0 32.0 0.00 0.00 0.00 91 1011.0
20260504010951 72 269 14.0 32.0 0.00 0.00 0.00 91 1011.0
20260504010751 72 269 14.0 32.0 0.00 0.00 0.00 91 1011.0
20260504010552 72 269 14.0 32.0 0.00 0.00 0.00 91 1011.0
20260504010152 72 269 13.0 32.0 0.00 0.00 0.00 91 1011.0
20260504005951 72 269 13.0 32.0 0.00 0.00 0.00 91 1011.0
20260504005751 72 269 13.0 32.0 0.00 0.00 0.00 91 1011.0
20260504005551 72 269 13.0 32.0 0.00 0.00 0.00 91 1011.0
20260504005351 72 269 13.0 32.0 0.00 0.00 0.00 91 1011.0
20260504005151 72 269 13.0 32.0 0.00 0.00 0.00 91 1011.0
20260504004951 72 269 13.0 32.0 0.00 0.00 0.00 91 1011.0
20260504004751 72 269 13.0 32.0 0.00 0.00 0.00 91 1011.0
20260504004551 72 269 13.0 32.0 0.00 0.00 0.00 91 1011.0
20260504004151 72 267 13.0 34.0 0.00 0.00 0.00 90 1011.0
20260504003951 71 267 13.0 34.0 0.00 0.00 0.00 94 1011.0
20260504003752 71 267 13.0 34.0 0.00 0.00 0.00 94 1011.0
20260504003551 71 267 13.0 34.0 0.00 0.00 0.00 94 1011.0
20260504003351 71 267 13.0 34.0 0.00 0.00 0.00 94 1011.0
20260504003151 71 267 13.0 34.0 0.00 0.00 0.00 94 1011.0
20260504002951 71 265 13.0 37.0 0.00 0.00 0.00 94 1011.0
20260504002751 71 265 13.0 37.0 0.00 0.00 0.00 94 1011.0
20260504002551 71 265 13.0 37.0 0.00 0.00 0.00 94 1011.0
20260504002352 71 265 13.0 37.0 0.00 0.00 0.00 94 1011.0
20260504001951 71 265 13.0 37.0 0.00 0.00 0.00 94 1011.0
20260504001751 71 265 13.0 37.0 0.00 0.00 0.00 94 1011.0
20260504001551 71 265 13.0 37.0 0.00 0.00 0.02 94 1011.0
20260504001351 71 259 13.0 39.0 0.00 0.00 0.02 93 1011.0
20260504001151 71 259 13.0 39.0 0.00 0.00 0.02 93 1011.0
20260504000951 71 259 13.0 39.0 0.00 0.00 0.02 94 1011.0
20260504000751 71 259 13.0 39.0 0.00 0.00 0.02 94 1011.0
20260504000551 71 259 13.0 39.0 0.00 0.00 0.02 94 1011.0
20260504000354 71 259 13.0 39.0 0.00 0.00 0.02 94 1011.0
20260503235951 71 249 13.0 41.0 0.00 0.00 0.02 93 1010.0
20260503235754 71 249 13.0 41.0 0.00 0.00 0.02 93 1010.0
20260503235551 71 249 13.0 41.0 0.00 0.00 0.02 93 1010.0
20260503235351 71 249 13.0 41.0 0.00 0.00 0.02 93 1010.0
20260503235151 71 249 13.0 41.0 0.00 0.00 0.02 93 1010.0
20260503234951 71 249 13.0 41.0 0.00 0.00 0.02 93 1010.0
20260503234751 71 249 13.0 41.0 0.00 0.00 0.02 93 1010.0
20260503234551 71 249 13.0 41.0 0.00 0.00 0.02 93 1010.0
20260503234351 71 236 15.0 42.0 0.00 0.00 0.02 93 1010.0
20260503234152 71 236 15.0 42.0 0.00 0.00 0.02 93 1010.0
20260503233751 71 236 15.0 42.0 0.00 0.00 0.02 93 1010.0
20260503233552 71 236 15.0 42.0 0.00 0.00 0.02 93 1010.0
20260503233352 71 236 15.0 42.0 0.00 0.00 0.02 93 1010.0
20260503233151 71 236 15.0 42.0 0.00 0.00 0.02 93 1010.0
20260503232952 71 225 17.0 44.0 0.00 0.00 0.02 91 1010.0
20260503232752 71 225 17.0 44.0 0.00 0.00 0.02 91 1010.0
20260503232551 71 225 17.0 44.0 0.00 0.00 0.02 91 1010.0
20260503232351 71 225 17.0 44.0 0.00 0.00 0.02 91 1010.0
20260503232152 71 225 17.0 44.0 0.00 0.00 0.02 91 1010.0
20260503231952 71 225 17.0 44.0 0.00 0.00 0.02 91 1010.0
20260503231551 71 225 17.0 44.0 0.00 0.00 0.02 91 1010.0
20260503231351 71 221 19.0 45.0 0.00 0.00 0.02 90 1010.0
20260503231151 71 221 19.0 45.0 0.00 0.00 0.02 90 1010.0
20260503230951 71 221 19.0 45.0 0.00 0.00 0.02 90 1010.0
20260503230752 71 221 19.0 45.0 0.00 0.00 0.02 90 1010.0
20260503230551 71 221 19.0 45.0 0.00 0.00 0.02 90 1010.0
20260503230351 71 221 19.0 45.0 0.00 0.00 0.02 90 1010.0
20260503230152 71 221 19.0 45.0 0.00 0.00 0.02 90 1010.0
20260503225952 71 222 19.0 45.0 0.00 0.00 0.02 89 1010.0
20260503225552 71 222 19.0 45.0 0.00 0.00 0.02 89 1010.0
20260503225352 71 222 19.0 45.0 0.00 0.00 0.02 89 1010.0
20260503225152 71 222 19.0 45.0 0.00 0.00 0.02 89 1010.0
20260503224952 71 222 19.0 45.0 0.00 0.00 0.02 89 1010.0
20260503224752 71 222 19.0 45.0 0.00 0.00 0.02 89 1010.0
20260503224551 71 222 19.0 45.0 0.00 0.00 0.02 89 1010.0
20260503224352 72 224 20.0 46.0 0.00 0.00 0.02 87 1010.0
20260503224152 72 224 20.0 46.0 0.00 0.00 0.02 87 1010.0
20260503223952 72 224 20.0 46.0 0.00 0.00 0.02 87 1010.0
20260503223752 72 224 20.0 46.0 0.00 0.00 0.02 87 1010.0
20260503223352 72 224 20.0 46.0 0.00 0.00 0.02 87 1010.0
20260503223152 72 224 20.0 46.0 0.00 0.00 0.02 87 1010.0
20260503222952 72 226 21.0 46.0 0.00 0.00 0.02 85 1009.0
20260503222752 72 226 21.0 46.0 0.00 0.00 0.02 85 1009.0
20260503222552 72 226 21.0 46.0 0.00 0.00 0.02 85 1009.0
20260503222352 72 226 21.0 46.0 0.00 0.00 0.02 85 1009.0
20260503222152 72 226 21.0 46.0 0.00 0.00 0.02 85 1009.0
20260503221952 72 226 21.0 46.0 0.00 0.00 0.02 85 1009.0
20260503221752 72 226 21.0 46.0 0.00 0.00 0.02 85 1009.0
20260503221552 72 226 21.0 46.0 0.00 0.00 0.02 85 1009.0
20260503221151 72 228 22.0 46.0 0.00 0.00 0.02 84 1009.0
20260503220952 72 228 22.0 46.0 0.00 0.00 0.02 84 1009.0
20260503220752 72 228 22.0 46.0 0.00 0.00 0.02 84 1009.0
20260503220551 72 228 22.0 46.0 0.00 0.00 0.02 84 1009.0
20260503220351 72 228 22.0 46.0 0.00 0.00 0.02 84 1009.0
20260503220156 73 228 22.0 46.0 0.00 0.00 0.02 83 1009.0
20260503215952 73 228 22.0 46.0 0.00 0.00 0.02 83 1009.0
20260503215751 73 228 22.0 46.0 0.00 0.00 0.02 83 1009.0
20260503215552 73 228 22.0 46.0 0.00 0.00 0.02 83 1009.0
20260503215352 73 228 22.0 46.0 0.00 0.00 0.02 83 1009.0
20260503214952 73 228 22.0 46.0 0.00 0.00 0.02 83 1009.0
20260503214752 73 228 22.0 46.0 0.00 0.00 0.02 83 1009.0
20260503214552 73 228 22.0 46.0 0.00 0.00 0.02 83 1009.0
20260503214352 73 228 22.0 47.0 0.00 0.00 0.02 81 1009.0
20260503214152 73 228 22.0 47.0 0.00 0.00 0.02 81 1009.0
20260503213952 73 228 22.0 47.0 0.00 0.00 0.02 81 1009.0
20260503213752 73 228 22.0 47.0 0.00 0.00 0.02 81 1009.0
20260503213553 73 228 22.0 47.0 0.00 0.00 0.02 81 1009.0
20260503213352 73 228 22.0 47.0 0.00 0.00 0.02 81 1009.0
20260503212952 73 228 22.0 47.0 0.00 0.00 0.02 79 1009.0
20260503212752 73 228 22.0 47.0 0.00 0.00 0.02 79 1009.0
20260503212552 73 228 22.0 47.0 0.00 0.00 0.02 79 1009.0
20260503212352 73 228 22.0 47.0 0.00 0.00 0.02 79 1009.0
20260503212152 73 228 22.0 47.0 0.00 0.00 0.02 79 1009.0
20260503211952 73 228 22.0 47.0 0.00 0.00 0.02 79 1009.0
20260503211752 73 228 22.0 47.0 0.00 0.00 0.02 79 1009.0
20260503211352 73 229 22.0 48.0 0.00 0.00 0.02 77 1009.0
20260503211151 73 229 22.0 48.0 0.00 0.00 0.02 77 1009.0
20260503210952 73 229 22.0 48.0 0.00 0.00 0.02 77 1009.0
20260503210752 73 229 22.0 48.0 0.00 0.00 0.02 77 1009.0
20260503210552 73 229 22.0 48.0 0.00 0.00 0.02 77 1009.0
20260503210352 73 229 22.0 48.0 0.00 0.00 0.02 77 1009.0
20260503210152 73 229 22.0 48.0 0.00 0.00 0.02 77 1009.0
20260503205952 74 229 22.0 48.0 0.00 0.00 0.02 76 1009.0
20260503205751 74 229 22.0 48.0 0.00 0.00 0.02 76 1009.0
20260503205552 74 229 22.0 48.0 0.00 0.00 0.02 76 1009.0
20260503205152 74 229 22.0 48.0 0.00 0.00 0.02 76 1009.0
20260503204952 74 229 22.0 48.0 0.00 0.00 0.02 76 1009.0
20260503204752 74 229 22.0 48.0 0.00 0.00 0.02 76 1009.0
20260503204552 74 229 22.0 48.0 0.00 0.00 0.02 76 1009.0
20260503204352 74 229 23.0 48.0 0.00 0.00 0.02 75 1009.0
20260503204152 74 229 23.0 48.0 0.00 0.00 0.02 75 1009.0
20260503203952 74 229 23.0 48.0 0.00 0.00 0.02 75 1009.0
20260503203752 74 229 23.0 48.0 0.00 0.00 0.02 75 1009.0
20260503203552 74 229 23.0 48.0 0.00 0.00 0.02 75 1009.0
20260503203152 74 229 23.0 48.0 0.00 0.00 0.02 75 1009.0
20260503202952 74 229 23.0 48.0 0.00 0.00 0.02 73 1010.0
20260503202752 74 229 23.0 48.0 0.00 0.00 0.02 73 1010.0
20260503202552 74 229 23.0 48.0 0.00 0.00 0.02 73 1010.0
20260503202352 74 229 23.0 48.0 0.00 0.00 0.02 73 1010.0
20260503202153 74 229 23.0 48.0 0.00 0.00 0.02 73 1010.0
20260503201952 74 229 23.0 48.0 0.00 0.00 0.02 73 1010.0
20260503201752 74 229 23.0 48.0 0.00 0.00 0.02 73 1010.0
20260503201552 74 229 23.0 48.0 0.00 0.00 0.02 73 1010.0
20260503201152 75 232 23.0 49.0 0.00 0.00 0.02 71 1010.0
20260503200952 75 232 23.0 49.0 0.00 0.00 0.02 71 1010.0
20260503200752 75 232 23.0 49.0 0.00 0.00 0.02 71 1010.0
20260503200552 75 232 23.0 49.0 0.00 0.00 0.02 71 1010.0
20260503200352 75 232 23.0 49.0 0.00 0.00 0.02 71 1010.0
20260503200152 75 232 23.0 49.0 0.00 0.00 0.02 71 1010.0
20260503195952 75 236 23.0 51.0 0.00 0.00 0.02 70 1010.0
20260503195752 75 236 23.0 51.0 0.00 0.00 0.02 70 1010.0
20260503195552 75 236 23.0 51.0 0.00 0.00 0.02 70 1010.0
20260503195352 75 236 23.0 51.0 0.00 0.00 0.02 70 1010.0
20260503194952 75 236 23.0 51.0 0.00 0.00 0.02 70 1010.0
20260503194752 75 236 23.0 51.0 0.00 0.00 0.02 70 1010.0
20260503194552 75 236 23.0 51.0 0.00 0.00 0.02 70 1010.0
20260503194355 76 242 23.0 53.0 0.00 0.00 0.02 67 1010.0
20260503194152 76 242 23.0 53.0 0.00 0.00 0.02 67 1010.0
20260503193952 76 242 23.0 53.0 0.00 0.00 0.02 67 1010.0
20260503193752 76 242 23.0 53.0 0.00 0.00 0.02 67 1010.0
20260503193552 76 242 23.0 53.0 0.00 0.00 0.02 67 1010.0
20260503193352 76 242 23.0 53.0 0.00 0.00 0.02 67 1010.0
20260503192952 76 247 23.0 55.0 0.00 0.00 0.02 65 1010.0
20260503192752 76 247 23.0 55.0 0.00 0.00 0.02 65 1010.0
20260503192552 76 247 23.0 55.0 0.00 0.00 0.02 65 1010.0
20260503192352 76 247 23.0 55.0 0.00 0.00 0.02 65 1010.0